Regional Weather Roundup
Issued by NWS Albany, NY

Home | Current Version | Previous Version | Graphics & Text | Print | Product List | Glossary On
Versions: 1 2 3 4 5 6 7 8 9 10 11 12 13 14 15 16 17 18 19 20 21 22 23 24 25 26 27
000
ASUS41 KALY 060810
RWRALY

NEW YORK STATE HOURLY WEATHER ROUNDUP
NATIONAL WEATHER SERVICE ALBANY NY
300 AM EST TUE DEC 06 2016

NOTE: "FAIR" INDICATES FEW OR NO CLOUDS BELOW 12,000 FEET WITH NO
SIGNIFICANT WEATHER AND/OR NO OBSTRUCTIONS TO VISIBILITY.

NYZ032-033-038>043-046>054-057>066-NYZ062>081-082-084-060900-
EAST


CITY           SKY/WX    TMP DP  RH WIND       PRES   REMARKS
ALBANY         CLOUDY    38  31  76 W9        30.10S WCI  31
GLENS FALLS    CLOUDY    32  29  88 CALM      30.09R
POUGHKEEPSIE   CLEAR     27  24  89 CALM      30.11R
NEWBURGH       PTCLDY    30  28  93 W5        30.12R WCI  25
MONTGOMERY     CLEAR     30  25  81 CALM      30.10S
WHITE PLAINS   CLEAR     37  27  67 NW8       30.09S WCI  31
ISLIP          CLEAR     32  27  81 NW6       30.10F WCI  26
NEW YORK CITY  PTCLDY    43  29  57 NW8       30.11F
CENTRAL PARK   CLEAR     40  28  62 W3        30.14S
$$

NYZ005>009-017-018-044>046-055-056-060900-
CENTRAL


CITY           SKY/WX    TMP DP  RH WIND       PRES   REMARKS
FULTON         CLOUDY    37  32  82 W5        30.11R WCI  33
SYRACUSE       MOCLDY    33  28  81 W6        30.11R WCI  28
ROME           CLOUDY    33  33 100 CALM      30.12R
ELMIRA         CLEAR     25  22  88 W3        30.11S
BINGHAMTON     CLEAR     30  25  81 NW5       30.08R WCI  25
MONTICELLO     CLEAR     28  25  86 W5        30.10R WCI  23
$$

NYZ026>034-041>043-087-060900-
NORTH


CITY           SKY/WX    TMP DP  RH WIND       PRES   REMARKS
WATERTOWN      CLEAR     27  25  92 SE3       30.11S FOG
FORT DRUM      NOT AVBL
OGDENSBURG     FAIR      28  27  98 CALM      30.11R
MASSENA        CLOUDY    33  30  88 W3        30.13R
SARANAC LAKE   CLOUDY    31  28  89 CALM      30.02R
PLATTSBURGH    CLOUDY    30  27  88 CALM      30.10R
$$

NYZ001>004-010>016-019>021-085-060900-
WEST


CITY           SKY/WX    TMP DP  RH WIND       PRES   REMARKS
NIAGARA FALLS  CLEAR     28  23  81 E3        30.09F HAZE
BUFFALO        PTCLDY    30  25  81 SE6       30.09F WCI  24
DUNKIRK        MOCLDY    35  31  85 SE6       30.08F WCI  30
JAMESTOWN      CLOUDY    34  28  80 NE5       30.03F WCI  30
WELLSVILLE     CLEAR     31  27  85 CALM      30.05F
ROCHESTER      CLEAR     27  24  89 SW3       30.12R
PENN YAN       CLEAR     31  24  75 CALM      30.11S
$$

             KEY
       WCI = WIND CHILL INDEX
       VSB = VISIBILITY
       HX  = HEAT INDEX
$$




USA.gov is the U.S. government's official web portal to all federal, state and local government web resources and services.